Погода в Оите

Япония     33°10′51″N   131°38′56″E
темп.,
°C
ветер,
м/с
пор.,
м/с
влажн.,
%
обл.,
%
осадки,
мм/ч
давл.,
гПа
погр.,
м
8 марта, пн
пн800:00+9с2280100 0.1 1024305
03:00+9сз4678100 0.4 1023465
06:00+9сз4678100 0.0 1023497
09:00+10ссз577275 0.0 1024597
12:00+12с56612 0.0 1023843
15:00+13ссв56581 0.0 1021622
18:00+12ссз36590 0.0 1023565
21:00+10сз466312 0.0 1024332
9 марта, вт
вт900:00+9сз347131 0.0 1024364
03:00+8з127216 0.0 1024194
06:00+8ссз127565 0.0 1024292
09:00+9сз127182 0.0 1025447
12:00+11ссв2263100 0.0 1024600
15:00+12ссв326198 0.0 1022530
18:00+11с346458 0.0 1023546
21:00+10сз576749 0.0 1025494
10 марта, ср
ср1000:00+9зсз35680 0.0 1025330
03:00+8сз34691 0.0 1024260
06:00+8сз35670 0.0 1026250
09:00+10сз35580 0.0 1026473
12:00+13ссв57430 0.0 1026741
15:00+14ссв35400 0.0 1025554
18:00+13с13470 0.0 1025261
21:00+11з23530 0.0 1028138
11 марта, чт
чт1100:00+10ссз12610 0.0 1028210
03:00+9з12660 0.0 1027166
06:00+8зюз22713 0.0 1028109
09:00+11зюз126349 0.0 1028229
12:00+15всв135499 0.0 1028675
15:00+16вюв4562100 0.0 1025756
18:00+14ююв4771100 0.0 1025450
21:00+13ююв257492 0.0 1026251
12 марта, пт
пт1200:00+12ю228099 0.0 1026111
03:00+12ююв128597 0.6 1024134
06:00+12юз1285100 0.1 1023124
09:00+12в1291100 2.5 1024196
12:00+11св5694100 3.7 1022325
15:00+10св6895100 12.8 1020384
18:00+10ссв71093100 7.2 1020535
21:00+11ссз4690100 9.3 1022443